Location: S�deilles
(46.7500°N, 6.9329°E)
Time: 16:25:43
(UTC+00:00)

Meteor 1-23 Rocket - Pass Details

Date: 08 March 2021
Orbit: 838 x 887 km, 81.3° (Epoch: 22 April)

Event Time Altitude Azimuth Distance (km) Brightness Sun altitude
Rises 18:39:30 0° 352° (N) 3,413 7.6 -13.0°
Reaches altitude 10° 18:41:59 10° 358° (N) 2,479 6.8 -13.4°
Maximum altitude 18:47:28 52° 74° (ENE) 1,052 4.3 -14.4°
Drops below altitude 10° 18:52:58 10° 151° (SSE) 2,492 6.3 -15.3°
Enters shadow 18:54:02 - 153° (SSE) 2,890 6.6 -15.5°
